DateTimeUTC,F1_A11,F1_S11,BsB_S11,BsG_S11,BsR_S11,BbsB_S11,BbsG_S11,BbsR_S11,BaB_A11,BaG_A11,BaR_A11,Tu_S11,T_S11,Uu_S11,U_S11,P_S11,T1_A11
2021-12-18T05:00:00Z,00000200,21000000,,,,,,,0000.12,-000.25,-000.04,18.2,25.4,,00.0,0659.6,30.9
2021-12-18T05:01:00Z,00000200,21000000,,,,,,,-000.52,-000.05,-000.09,18.2,25.4,,00.0,0659.6,30.9
2021-12-18T05:02:00Z,00000200,21000000,,,,,,,0000.08,0000.10,0000.06,18.2,25.4,,00.0,0659.6,30.9
2021-12-18T05:03:00Z,00000200,61000000,,,,,,,0000.00,0000.01,-000.02,18.2,25.4,,00.0,0659.6,31.0
2021-12-18T05:04:00Z,00000200,41000000,-000.16,-000.07,0000.12,-000.04,0000.21,0000.07,0000.30,0000.35,-000.19,18.4,25.2,,00.0,0660.5,31.0
2021-12-18T05:05:00Z,00000200,01000000,0000.14,0000.06,0000.17,-000.21,0000.50,0000.13,-000.03,-000.27,0000.43,18.5,25.2,,00.0,0660.6,31.0
2021-12-18T05:06:00Z,00000200,01000000,0000.33,0000.29,0000.09,-000.19,0000.12,0000.36,0000.11,-000.06,-000.31,18.5,25.2,,00.0,0660.6,31.0
2021-12-18T05:07:00Z,00000200,01000000,0000.24,0000.68,0000.25,-000.23,0000.03,0000.19,0000.32,-000.11,0000.44,18.5,25.2,,00.0,0660.6,31.0
2021-12-18T05:08:00Z,00000200,01000000,-000.11,-000.05,-000.28,-000.42,0000.09,0000.00,-000.02,0000.26,-000.25,18.5,25.2,,00.0,0660.6,31.0
2021-12-18T05:09:00Z,00000200,01000000,-000.11,0000.27,0000.12,0000.36,0000.07,-000.01,-000.43,0000.13,0000.07,18.5,25.2,,00.0,0660.6,31.0
2021-12-18T05:10:00Z,00000200,01000000,0000.44,0000.01,0000.11,-000.38,-000.26,0000.20,0000.11,0000.08,0000.01,18.5,25.2,,00.0,0660.6,31.0
2021-12-18T05:11:00Z,00000200,01000000,0000.54,0000.42,0000.13,-000.12,-000.27,-000.03,0000.28,0000.04,0000.18,18.5,25.2,,00.0,0660.7,31.0
2021-12-18T05:12:00Z,00000200,01000000,-000.37,0000.10,0000.13,0000.14,0000.02,-000.06,-000.07,0000.27,-000.29,18.5,25.2,,00.0,0660.7,31.0
2021-12-18T05:13:00Z,00000200,01000000,0000.32,0000.05,0000.11,-000.10,-000.05,-000.05,0000.16,-000.45,0000.17,18.5,25.2,,00.0,0660.7,31.0
2021-12-18T05:14:00Z,00000200,01000000,0000.22,0000.25,-000.21,-000.27,-000.06,0000.15,-000.05,0000.15,0000.13,18.5,25.2,,00.0,0660.7,31.0
2021-12-18T05:15:00Z,00000200,01000000,0000.33,0000.29,0000.37,-000.49,0000.13,0000.25,-000.29,0000.07,-000.12,18.5,25.2,,00.0,0660.7,31.0
2021-12-18T05:16:00Z,00000200,01000000,0000.12,0000.14,0000.17,-000.15,0000.20,0000.30,-000.41,-000.64,-000.38,18.5,25.2,,00.0,0660.7,31.0
2021-12-18T05:17:00Z,00000200,01000000,-000.17,0000.23,0000.12,-000.44,-000.09,0000.04,0000.55,0000.62,0000.08,18.5,25.2,,00.0,0660.8,31.0
2021-12-18T05:18:00Z,00000200,01000000,0000.31,-000.01,0000.14,-000.61,0000.14,0000.18,-000.28,-000.06,0000.27,18.5,25.2,,00.0,0660.8,31.0
2021-12-18T05:19:00Z,00000200,01000000,0000.16,-000.35,0000.21,0000.08,0000.17,0000.05,0000.10,-000.07,-000.35,18.5,25.2,,00.0,0660.8,31.0
2021-12-18T05:20:00Z,00000200,01000000,-000.34,0000.54,0000.15,-000.03,0000.04,0000.17,-000.15,-000.16,0000.61,18.5,25.2,,00.0,0660.8,31.0
2021-12-18T05:21:00Z,00000200,01000000,0000.32,0000.07,0000.20,-000.27,-000.11,0000.23,0000.04,0000.20,-000.29,18.5,25.2,,00.0,0660.8,31.0
2021-12-18T05:22:00Z,00000200,01000000,-000.02,0000.41,0000.10,-000.36,0000.03,0000.05,0000.01,-000.13,-000.13,18.6,25.2,,00.0,0660.9,31.0
2021-12-18T05:23:00Z,00000200,01000000,-000.66,0000.33,-000.05,-000.23,-000.06,0000.03,0000.11,0000.09,0000.02,18.6,25.2,,00.0,0660.9,30.9
2021-12-18T05:24:00Z,00000200,01000000,0000.52,-000.18,-000.03,-000.17,-000.08,0000.25,0000.22,0000.12,-000.28,18.5,25.1,,00.0,0660.9,31.0
2021-12-18T05:25:00Z,00000200,01000000,-000.50,0000.13,-000.17,0000.16,0000.21,0000.19,-000.12,-000.01,0000.37,18.5,25.1,,00.0,0660.9,31.0
2021-12-18T05:26:00Z,00000200,01000000,-000.68,0000.31,-000.00,-000.43,0000.06,0000.19,-000.07,-000.05,0000.07,18.5,25.2,,00.0,0660.9,31.0
2021-12-18T05:27:00Z,00000200,01000000,0000.09,-000.05,0000.12,0000.32,-000.06,0000.12,0000.28,0000.13,0000.05,18.5,25.2,,00.0,0660.9,31.0
2021-12-18T05:28:00Z,00000200,01000000,0000.40,0000.19,0000.34,0000.08,0000.18,0000.32,0000.06,0000.21,0000.10,18.5,25.2,,00.0,0660.9,31.0
2021-12-18T05:29:00Z,00000200,01000000,0000.47,0000.37,0000.07,-000.40,-000.05,0000.13,-000.14,0000.00,0000.16,18.5,25.2,,00.0,0661.0,31.0
2021-12-18T05:30:00Z,00000200,01000000,-000.92,-000.14,-000.10,0000.16,-000.11,0000.08,0000.21,-000.04,0000.03,18.6,25.2,,00.0,0661.0,31.0
2021-12-18T05:31:00Z,00000200,01000000,-000.49,0000.28,0000.05,-000.02,0000.19,0000.48,-000.19,0000.11,-000.23,18.5,25.1,,00.0,0661.0,31.0
2021-12-18T05:32:00Z,00000200,01000000,-001.47,0000.28,-000.01,0000.21,0000.25,0000.09,0000.32,-000.08,-000.21,18.6,25.2,,00.0,0661.1,31.0
2021-12-18T05:33:00Z,00000200,01000000,-000.25,0000.19,-000.35,0000.24,0000.41,0000.24,-000.43,-000.55,0000.32,18.6,25.2,,00.0,0661.1,31.0
2021-12-18T05:34:00Z,00000200,01000000,-000.22,0000.35,-000.03,-000.78,0000.09,-000.03,0000.22,0000.42,-000.43,18.6,25.2,,00.0,0661.1,31.0
2021-12-18T05:35:00Z,00000200,01000000,0000.15,-000.30,-000.20,0000.09,0000.27,0000.05,0000.13,-000.02,0000.44,18.6,25.2,,00.0,0661.2,31.0
2021-12-18T05:36:00Z,00000200,01000000,-000.01,0000.08,-000.02,-000.46,-000.08,0000.12,-000.15,-000.50,-000.16,18.6,25.1,,00.0,0661.2,31.0
2021-12-18T05:37:00Z,00000200,01000000,0000.42,-000.00,0000.30,-000.48,0000.30,0000.55,-000.14,0000.44,0000.13,18.5,25.1,,00.0,0661.2,30.9
2021-12-18T05:38:00Z,00000200,01000000,-000.49,0000.33,0000.07,0000.59,0000.16,0000.20,-000.09,-000.32,-000.41,18.6,25.1,,00.0,0661.2,31.0
2021-12-18T05:39:00Z,00000200,01000000,-000.34,-000.28,0000.08,-000.18,0000.22,0000.03,-000.09,0000.22,0000.10,18.5,25.1,,00.0,0661.3,30.9
2021-12-18T05:40:00Z,00000200,01000000,-001.09,0000.40,-000.16,-000.39,0000.31,0000.30,0000.09,-000.11,0000.12,18.5,25.1,,00.0,0661.3,30.9
2021-12-18T05:41:00Z,00000200,01000000,0000.05,0000.49,0000.08,-000.09,0000.41,0000.04,0000.01,0000.05,0000.10,18.6,25.1,,00.0,0661.3,31.0
2021-12-18T05:42:00Z,00000200,01000000,0000.10,0000.43,-000.12,-000.81,0000.13,0000.16,-000.00,-000.10,0000.05,18.6,25.1,,00.0,0661.3,31.0
2021-12-18T05:43:00Z,00000200,01000000,0000.07,0000.51,-000.11,-000.89,-000.05,0000.01,-000.01,0000.04,-000.10,18.5,25.1,,00.0,0661.3,30.9
2021-12-18T05:44:00Z,00000200,01000000,-000.30,-000.01,-000.05,-000.84,0000.07,0000.14,0000.29,0000.27,0000.04,18.5,25.1,,00.0,0661.4,30.9
2021-12-18T05:45:00Z,00000200,01000000,-000.32,0000.25,0000.25,-000.08,-000.11,0000.46,-000.00,-000.09,-000.05,18.5,25.1,,00.0,0661.4,31.0
2021-12-18T05:46:00Z,00000200,01000000,-000.23,0000.13,0000.13,-000.06,-000.07,0000.05,-000.23,0000.04,0000.21,18.5,25.1,,00.0,0661.3,31.0
2021-12-18T05:47:00Z,00000200,01000000,-000.29,0000.50,0000.14,-000.66,-000.07,0000.45,0000.29,0000.05,-000.18,18.5,25.1,,00.0,0661.4,31.0
2021-12-18T05:48:00Z,00000200,01000000,0000.25,0000.12,0000.30,0000.04,-000.01,0000.05,-000.28,-000.18,0000.16,18.5,25.1,,00.0,0661.4,31.0
2021-12-18T05:49:00Z,00000200,01000000,-000.11,0000.42,0000.18,-000.28,0000.10,0000.20,0000.12,0000.43,-000.05,18.5,25.1,,00.0,0661.4,31.0
2021-12-18T05:50:00Z,00000200,01000000,0000.41,0000.17,0000.01,-000.03,0000.32,-000.04,0000.41,-000.25,0000.31,18.6,25.1,,00.0,0661.4,31.0
2021-12-18T05:51:00Z,00000200,01000000,0000.02,0000.17,-000.07,-000.26,0000.04,0000.21,0000.09,0000.57,-000.25,18.6,25.1,,00.0,0661.4,31.0
2021-12-18T05:52:00Z,00000200,01000000,0000.10,-000.05,0000.04,-000.71,0000.32,-000.15,-000.13,-000.27,-000.25,18.6,25.1,,00.0,0661.5,31.0
2021-12-18T05:53:00Z,00000200,01000000,-000.04,0000.19,-000.20,0000.02,0000.17,-000.30,-000.37,0000.15,0000.30,18.6,25.1,,00.0,0661.5,31.0
2021-12-18T05:54:00Z,00000200,01000000,0000.18,-000.03,-000.16,0000.39,-000.10,0000.35,0000.16,-000.34,-000.07,18.6,25.1,,00.0,0661.5,31.0
2021-12-18T05:55:00Z,00000200,01000000,0000.41,0000.30,0000.03,-000.03,0000.18,-000.14,0000.11,-000.02,0000.12,18.6,25.1,,00.0,0661.5,31.0
2021-12-18T05:56:00Z,00000200,01000000,0000.93,0000.11,0000.02,-000.51,0000.17,0000.12,0000.37,0000.25,0000.24,18.6,25.1,,00.0,0661.5,31.0
2021-12-18T05:57:00Z,00000200,41000000,,,,,,,0000.10,0000.17,-000.07,18.6,25.2,,00.0,0661.6,31.0
2021-12-18T05:58:00Z,00000200,61000000,,,,,,,-000.24,0000.11,-000.00,18.2,25.3,,00.0,0660.6,31.0
2021-12-18T05:59:00Z,00000200,21000000,,,,,,,0000.12,-000.07,0000.30,18.2,25.4,,00.0,0660.6,31.0
